This demonstration page uses our WeatherBlox Daily Observations layout. Learn more.

Left ArrowRight Arrow

39.92423, -83.80882

Hourly Observations for January 25, 2017

Temp ( °F °C ) Dew Point ( °F °C ) Humidity (%) Winds ( mph kmh ) Pressure ( in mb ) Visibility ( mi km ) Precip ( " mm )
12:44 am 00:44 Partly Cloudy 37 3 34 1 87 87 SE 5 7 29.85 1011 10 16.0934 0 0
12:56 am 00:56 Partly Cloudy 37 2.8 34 1.1 89 89 SE 5 7 29.84 1011 10 16.0934 0 0
1:56 am 01:56 Cloudy 37 2.8 34 1.1 89 89 SE 5 7 29.85 1011 10 16.0934 0 0
2:56 am 02:56 Cloudy 38 3.3 35 1.7 89 89 SSE 3 6 29.85 1011 10 16.0934 0 0
3:56 am 03:56 Cloudy 38 3.3 35 1.7 89 89 SE 9 15 29.81 1010 10 16.0934 0 0
4:56 am 04:56 Mostly Cloudy 37 2.8 34 1.1 89 89 SSE 7 11 29.78 1009 10 16.0934 0 0
5:56 am 05:56 Cloudy 37 2.8 35 1.7 93 93 SSE 9 15 29.78 1008 10 16.0934 0 0
6:56 am 06:56 Clear 35 1.7 33 0.6 93 93 SE 9 15 29.74 1007 10 16.0934 0 0
7:56 am 07:56 Partly Cloudy 36 2.2 34 1.1 93 93 SSE 9 15 29.72 1007 9 14.48406 0 0
8:56 am 08:56 Cloudy 39 3.9 35 1.7 86 86 SSE 15 24 29.68 1005 10 16.0934 0 0
9:56 am 09:56 Cloudy with Light Rain 40 4.4 36 2.2 86 86 SSE 8 13 29.71 1006 10 16.0934 0 0.0254
10:56 am 10:56 Cloudy with Light Rain 42 5.6 38 3.3 85 85 S 5 7 29.7 1006 10 16.0934 0.03 0.762
11:56 am 11:56 Cloudy with Light Rain 43 6.1 39 3.9 86 86 S 9 15 29.66 1004 10 16.0934 0 0.0254
12:56 pm 12:56 Cloudy with Light Rain 45 7.2 41 5 86 86 SSE 8 13 29.61 1003 10 16.0934 0 0.0254
1:56 pm 13:56 Cloudy with Light Rain 48 8.9 43 6.1 83 83 SSW 8 13 29.56 1001 10 16.0934 0 0.0254
2:56 pm 14:56 Mostly Cloudy 51 10.6 45 7.2 80 80 SSW 10 17 29.54 1000 10 16.0934 0 0.0254
3:56 pm 15:56 Mostly Cloudy 52 11.1 46 7.8 80 80 SSW 12 19 29.54 1000 10 16.0934 0 0
4:56 pm 16:56 Partly Cloudy 54 12.2 47 8.3 77 77 SSW 16 26 29.54 1000 10 16.0934 0 0
5:56 pm 17:56 Cloudy 53 11.7 46 7.8 77 77 SW 10 17 29.56 1001 10 16.0934 0 0
6:56 pm 18:56 Partly Cloudy 50 10 46 7.8 86 86 SW 6 9 29.57 1002 10 16.0934 0 0
7:56 pm 19:56 Partly Cloudy 46 7.8 41 5 83 83 WNW 18 30 29.61 1003 10 16.0934 0 0
8:15 pm 20:15 Mostly Cloudy 45 7 41 5 87 87 WNW 13 20 29.59 1002 10 16.0934 0 0
8:39 pm 20:39 Partly Cloudy 45 7 39 4 81 81 WNW 21 33 29.59 1002 10 16.0934 0 0
8:56 pm 20:56 Clear 43 6.1 36 2.2 76 76 W 16 26 29.62 1003 10 16.0934 0 0
9:56 pm 21:56 Mostly Clear 40 4.4 35 1.7 83 83 W 10 17 29.62 1003 10 16.0934 0 0
10:56 pm 22:56 Clear 39 3.9 34 1.1 82 82 W 13 20 29.64 1004 10 16.0934 0 0
11:56 pm 23:56 Partly Cloudy 38 3.3 32 0 79 79 W 16 26 29.64 1004 10 16.0934 0 0

Powered by AerisWeather